Temperature
19 17 17 17 17 17 17 17 16 16 16 16 16 16 16 16 15 15 15 15 15 15 15 15 15 15 15 15 15 16 16 16 16 16 15 15 14 14 14 14 13 13 13
20 18 17 17 17 17 17 16 16 16 16 16 16 16 16 16 15 15 15 15 16 16 16 16 16 15 15 15 16 16 16 16 16 16 15 15 14 14 14 13 13 13 13
20 18 18 17 17 17 17 16 16 16 16 16 16 16 16 16 15 15 15 16 16 16 16 16 16 16 16 16 16 16 16 16 16 15 15 15 14 14 14 14 13 13 13
20 19 18 17 17 17 17 16 16 16 16 16 16 16 16 16 15 15 16 16 16 16 16 16 16 16 16 16 16 15 15 15 15 15 15 15 14 14 14 14 14 14 13
19 19 18 17 17 17 17 17 16 16 17 17 17 17 16 16 16 16 16 16 16 16 16 16 16 16 16 16 16 15 15 15 15 15 14 14 14 14 14 14 13 13 13
19 18 17 17 17 17 17 17 17 17 17 17 17 17 16 16 16 16 16 16 16 16 16 16 16 16 16 16 16 15 15 15 15 15 14 14 14 13 14 13 13 13 13
19 18 17 17 17 17 17 17 17 17 17 17 17 17 16 16 16 16 16 16 16 16 16 16 16 16 16 16 15 15 15 15 15 14 14 14 14 13 14 13 13 13 13
18 18 17 16 16 17 17 17 17 17 17 17 17 17 16 16 16 16 16 16 16 16 16 16 16 16 16 15 15 15 15 15 14 14 14 14 14 14 14 14 14 14 14
17 17 16 16 16 16 17 17 17 18 18 18 17 17 17 16 16 17 17 16 16 16 16 16 16 16 16 16 15 15 15 15 14 14 14 14 14 14 14 14 14 14 14
16 16 16 16 16 16 17 17 17 18 18 18 18 17 17 17 17 17 17 17 16 16 16 16 16 16 16 16 15 15 15 15 14 14 14 14 14 14 14 14 14 14 14
15 16 16 16 16 16 16 17 17 17 18 18 18 18 18 17 17 17 17 17 17 16 16 16 16 16 16 15 15 15 15 15 15 14 14 14 13 13 13 14 14 14 14
15 15 15 15 16 16 16 17 17 17 18 18 18 18 18 18 17 17 17 17 17 17 16 16 16 16 16 15 15 15 15 15 15 14 14 14 13 13 13 13 13 13 13
16 16 15 15 16 16 16 17 17 17 17 17 17 17 17 18 18 18 17 17 17 17 16 16 16 16 15 15 15 15 15 15 15 14 14 14 13 13 13 13 13 13 13
16 16 16 16 16 16 16 16 16 17 17 17 17 17 17 17 17 17 17 17 17 16 16 16 16 15 15 15 15 15 15 14 14 14 14 13 13 13 12 12 12 12 12
17 17 16 16 16 16 16 16 16 16 16 16 16 17 17 17 17 16 16 16 16 16 16 15 15 15 15 15 14 14 14 14 14 14 13 13 13 13 12 12 12 12 12
17 17 16 16 16 16 16 16 16 16 16 16 16 16 16 16 16 16 16 16 15 15 15 15 15 14 14 14 14 14 14 14 13 13 13 13 13 12 12 12 12 11 11
17 17 16 16 16 16 15 15 15 15 15 15 15 15 15 15 15 15 15 15 15 14 14 14 14 14 14 14 13 13 13 13 13 13 13 12 12 12 12 12 11 11 11
17 16 16 16 16 15 15 15 15 15 15 15 15 15 15 15 15 15 15 15 14 14 14 14 14 13 13 13 13 13 13 12 12 12 12 12 12 12 12 11 11 11 11
17 16 16 16 16 16 15 15 15 15 14 14 14 14 14 14 14 14 15 15 14 14 14 13 13 13 13 13 13 13 12 12 12 12 12 12 12 12 12 11 11 11 11
17 16 16 16 16 15 15 15 15 15 15 14 14 14 14 14 14 14 14 14 14 14 14 14 13 13 13 13 13 12 13 12 12 12 12 12 12 12 12 12 11 11 11
17 17 16 16 16 16 15 15 15 15 15 15 15 15 14 14 14 14 14 14 14 14 14 13 13 13 13 13 12 12 12 12 12 12 12 12 12 12 12 11 11 11 11
17 17 17 16 16 16 16 15 15 15 15 15 15 15 15 14 14 14 14 14 14 14 14 13 13 13 13 13 12 12 11 12 12 12 12 12 12 12 12 11 11 11 10
17 16 16 16 16 16 15 15 15 15 15 15 15 15 15 14 14 14 14 14 14 13 13 13 13 13 12 12 12 11 11 11 11 11 11 11 11 11 11 11 11 11 10
16 16 16 16 15 15 15 15 15 15 15 15 14 14 14 14 14 14 14 14 14 13 13 13 13 13 12 12 12 11 11 11 10 10 10 11 11 11 11 10 10 10 10
15 15 15 15 15 15 15 14 14 14 14 14 14 14 14 14 13 13 13 13 13 13 13 12 12 12 12 11 11 11 11 10 10 10 10 10 10 10 10 10 10 9 9
14 14 14 14 14 14 13 13 13 13 13 13 13 13 13 13 13 12 12 12 12 12 12 12 12 11 11 11 11 10 10 10 10 9 9 9 9 9 9 9 9 9 8
Wind_Speed
6 12 19 17 16 16 16 15 15 15 14 13 13 12 12 12 12 13 13 14 14 15 15 16 16 17 18 19 18 17 16 16 15 14 14 13 12 11 12 11 10 10 11
9 15 20 18 17 16 15 15 15 15 14 13 12 11 12 12 12 13 13 14 14 14 15 16 16 17 18 17 17 16 15 14 13 12 12 11 11 10 10 10 9 9 10
10 16 19 18 17 16 16 16 15 15 13 12 11 11 12 12 13 13 14 14 14 14 15 15 16 16 16 15 13 12 12 11 10 10 9 8 8 10 9 9 8 9 8
13 16 17 18 17 17 17 16 15 14 13 11 10 11 12 13 14 15 14 14 14 14 14 14 15 14 14 12 11 10 9 8 8 8 8 7 7 9 9 9 8 8 7
11 15 17 19 18 18 17 17 15 14 12 11 10 12 13 14 14 14 14 13 13 13 13 13 13 12 11 11 10 9 9 8 8 8 8 7 6 9 10 10 10 9 8
9 15 18 19 19 19 18 17 15 14 12 10 10 12 13 14 14 14 13 12 12 11 11 11 11 10 10 10 9 9 9 10 10 9 8 8 8 9 10 10 10 10 10
9 14 18 19 19 19 18 17 15 13 12 11 10 12 13 14 14 13 12 11 10 10 9 9 9 9 9 9 9 9 9 10 10 9 9 9 9 10 9 9 9 9 8
9 12 17 19 20 19 18 16 15 13 12 11 10 11 12 13 13 12 11 10 9 8 7 7 7 7 7 8 8 8 9 8 8 8 7 7 7 7 7 7 7 7 7
9 10 13 17 18 18 17 16 15 13 12 11 10 12 12 12 12 10 9 9 8 7 6 5 5 5 5 6 6 6 7 7 7 6 5 4 4 5 5 5 5 5 5
7 7 9 13 15 16 15 15 14 13 12 11 11 12 12 12 11 9 8 7 6 6 5 3 3 3 4 5 5 5 6 6 5 4 3 2 3 4 4 3 3 4 4
8 6 7 9 12 13 14 13 13 12 11 10 10 11 11 9 8 8 7 6 6 5 4 3 2 2 2 4 4 4 5 5 5 5 4 4 3 3 2 2 2 2 3
10 8 6 7 10 11 11 11 11 10 10 10 9 10 9 8 7 6 6 6 5 5 4 4 3 1 1 2 2 2 3 5 5 6 7 6 5 3 3 2 2 1 2
11 9 8 7 9 10 8 9 9 9 9 9 10 10 8 6 5 4 4 4 5 5 4 4 3 2 1 1 1 1 3 5 6 7 8 8 7 6 5 4 3 3 2
10 10 9 8 8 9 9 9 9 8 8 9 10 11 9 6 5 5 5 6 6 6 5 5 5 5 4 4 4 3 4 5 8 9 10 11 10 9 7 7 6 5 4
11 10 9 8 8 8 7 7 8 8 9 11 11 12 12 8 6 7 7 7 8 8 7 7 7 6 6 6 6 6 6 8 9 11 12 13 13 12 11 9 9 8 7
10 10 8 9 8 8 6 6 7 10 10 10 11 13 14 12 9 8 7 7 9 11 11 10 9 7 6 6 6 8 8 9 11 12 14 15 15 15 14 13 12 11 10
8 8 8 9 8 8 7 8 9 10 11 10 12 14 15 14 12 10 7 7 10 13 12 9 8 7 5 5 6 8 9 10 11 13 15 16 16 17 18 16 15 14 13
7 7 8 8 8 9 7 8 8 10 11 11 12 13 15 16 15 12 7 7 12 11 9 6 5 5 6 6 6 6 7 9 11 14 15 16 17 17 19 20 19 17 16
6 6 6 6 7 8 7 7 8 8 9 10 11 11 13 15 16 13 10 10 12 9 7 6 6 5 7 8 8 8 6 6 8 11 12 16 18 19 20 21 22 21 19
3 4 4 4 3 5 4 3 3 4 4 7 9 10 12 12 14 13 10 10 10 6 6 7 8 7 7 7 6 7 7 7 6 7 9 13 16 19 20 21 21 22 22
3 3 3 3 2 3 3 3 3 3 3 3 5 8 9 10 11 11 8 7 7 8 9 9 7 8 8 4 3 5 5 6 8 8 7 8 11 16 17 19 19 19 20
4 4 3 3 3 2 2 2 2 1 1 2 2 3 5 6 8 8 7 6 6 7 8 8 8 5 5 5 4 3 4 4 6 8 6 7 8 9 11 16 18 19 19
4 4 4 4 4 3 2 2 2 2 1 1 1 1 2 4 4 5 6 6 5 7 8 9 8 8 7 5 6 5 4 5 3 3 4 5 6 5 6 10 15 18 19
4 4 5 5 5 4 3 3 2 2 1 1 1 2 3 4 3 4 4 4 4 5 7 7 7 7 7 7 5 7 7 4 4 4 2 2 4 5 6 6 9 14 16
4 5 5 6 7 6 5 4 3 1 0 1 2 3 3 4 4 5 4 3 3 4 5 6 5 6 6 7 5 4 6 5 5 6 6 3 2 3 4 5 6 9 13
5 5 6 7 7 6 6 5 4 2 1 2 3 3 3 3 3 5 6 4 3 3 4 5 5 5 6 6 5 5 5 4 5 6 8 5 4 3 2 2 3 5 8
Wind_Direction
174 167 158 156 150 144 138 133 128 122 117 112 109 108 107 106 105 103 99 94 91 88 88 89 90 92 92 90 88 86 85 84 79 73 70 73 80 79 73 75 77 76 82
155 160 156 156 152 147 141 136 130 125 121 117 115 114 114 113 112 109 105 100 96 93 92 93 96 97 95 92 90 88 87 86 83 75 65 63 72 78 77 76 80 78 81
146 155 154 154 151 146 141 136 132 129 125 122 121 121 121 119 118 115 109 104 99 96 96 98 100 99 96 93 91 90 90 88 83 71 61 55 68 80 80 77 74 72 74
147 151 152 152 148 144 140 137 135 132 128 126 126 127 127 125 121 118 113 108 103 101 100 101 102 100 96 91 88 89 91 89 80 69 59 52 64 84 82 77 72 69 68
143 147 151 150 147 142 140 139 136 134 131 129 131 132 132 130 125 120 117 112 108 106 105 105 103 100 94 87 85 86 90 91 83 76 67 58 63 82 78 73 69 67 71
137 145 151 148 145 143 142 141 139 136 135 132 133 137 136 133 128 123 119 116 113 111 111 109 106 100 91 85 85 87 93 95 90 81 70 65 69 81 78 72 67 64 65
141 146 151 148 146 145 144 143 142 141 140 137 136 139 138 134 131 128 125 123 120 118 117 115 111 103 91 83 85 91 98 101 97 85 75 72 76 78 75 71 67 63 62
142 145 150 149 147 146 146 147 147 147 146 144 141 140 138 136 135 134 134 133 131 128 124 119 113 105 93 85 86 95 102 108 106 95 86 80 83 81 76 70 67 64 62
138 142 147 149 148 148 150 152 153 153 153 152 146 141 140 139 141 143 144 144 143 139 133 126 116 105 93 86 90 102 111 119 121 114 104 100 99 92 84 78 71 65 61
133 139 144 148 148 149 153 156 157 159 159 157 152 145 144 146 149 152 156 158 158 155 149 144 132 111 90 87 94 113 133 135 140 145 142 144 127 108 96 84 76 70 66
155 149 146 145 146 150 154 159 161 163 164 160 156 153 149 151 156 161 169 175 175 173 173 176 172 132 96 87 95 121 151 162 170 181 187 188 174 145 128 111 94 84 80
174 171 161 151 149 152 157 158 160 162 165 163 162 162 161 163 167 173 187 195 197 195 198 209 212 184 128 99 100 128 166 188 196 205 209 212 208 198 183 175 164 140 119
180 180 174 163 158 158 153 157 161 164 168 172 176 176 175 176 182 185 198 214 219 218 221 235 245 241 246 245 214 203 208 213 217 219 221 224 224 222 211 202 203 200 190
182 187 180 171 166 168 162 167 170 172 178 184 190 189 183 184 195 204 212 220 224 225 227 235 242 250 258 261 256 248 239 234 231 230 230 229 230 231 225 216 215 217 215
188 190 185 177 176 174 170 176 182 189 194 198 199 200 198 195 202 210 219 225 229 230 230 232 237 245 254 261 261 253 246 242 240 236 235 234 232 233 232 227 223 222 222
193 193 186 185 183 179 180 186 193 200 204 205 208 210 210 209 210 212 219 224 230 231 232 232 235 239 249 256 260 254 250 245 241 238 237 237 234 232 231 231 229 227 224
196 192 189 191 186 185 190 195 200 205 207 209 216 218 216 217 218 217 220 226 233 235 234 235 239 239 244 246 251 253 248 243 238 236 236 235 234 232 230 232 233 231 227
190 188 192 195 187 193 196 198 203 206 208 216 220 221 221 221 222 220 223 231 235 232 225 223 225 234 242 242 247 248 243 241 239 237 233 231 231 231 229 230 232 232 230
190 185 185 188 183 192 196 200 205 207 211 218 221 224 226 225 224 222 228 233 230 224 222 227 227 222 240 243 245 249 243 239 241 238 231 230 228 228 227 228 229 229 228
148 159 166 168 172 176 176 179 194 206 215 219 220 225 229 230 228 225 231 231 221 219 227 226 232 226 235 243 250 255 249 242 239 236 236 234 231 230 228 227 228 230 228
107 127 143 147 142 137 142 163 184 209 214 219 225 229 230 233 231 226 233 229 216 223 230 226 227 233 239 225 238 267 263 242 239 240 234 232 234 232 230 229 228 228 229
116 110 109 112 104 117 140 147 159 167 195 215 231 235 239 245 242 234 232 233 223 227 233 229 220 226 230 190 197 238 286 290 253 241 234 236 241 234 231 231 229 229 229
116 115 111 100 91 81 98 104 80 64 31 15 351 324 315 298 279 261 252 244 235 228 237 237 226 228 242 220 200 213 241 253 284 278 244 239 239 233 236 235 232 233 232
129 110 101 93 81 68 75 98 128 157 215 272 311 312 322 327 316 303 286 269 256 246 246 246 234 229 236 243 217 223 234 236 251 288 278 269 250 241 240 238 238 237 236
122 109 100 90 75 63 65 84 103 114 213 321 336 335 339 343 351 348 329 307 282 267 262 260 252 239 236 243 230 213 230 237 233 251 272 269 280 256 244 237 237 240 238
112 102 98 90 73 61 65 66 82 92 55 11 354 344 340 339 347 358 353 346 326 305 287 275 264 253 246 245 240 218 209 211 213 226 251 249 251 257 255 250 244 247 244
Height
1533 1536 1540 1543 1546 1548 1550 1551 1552 1553 1554 1554 1554 1555 1555 1555 1556 1556 1557 1557 1557 1557 1557 1557 1558 1559 1560 1561 1561 1562 1562 1562 1562 1562 1562 1562 1562 1562 1562 1562 1563 1563 1563
1532 1536 1540 1543 1546 1549 1550 1552 1553 1554 1555 1555 1555 1556 1556 1557 1558 1559 1559 1559 1559 1559 1559 1559 1560 1561 1561 1562 1563 1563 1564 1564 1564 1564 1564 1564 1564 1564 1564 1565 1565 1565 1565
1532 1536 1540 1544 1547 1549 1551 1552 1553 1554 1555 1556 1556 1557 1558 1559 1560 1560 1561 1561 1561 1561 1561 1561 1562 1562 1563 1564 1565 1565 1565 1566 1566 1566 1566 1566 1566 1566 1566 1567 1567 1567 1567
1533 1537 1540 1544 1547 1549 1551 1553 1554 1555 1556 1557 1557 1558 1559 1560 1561 1562 1563 1563 1563 1563 1563 1564 1564 1565 1565 1566 1567 1567 1567 1567 1568 1568 1568 1568 1568 1568 1568 1569 1569 1568 1568
1534 1537 1541 1544 1547 1550 1552 1553 1555 1556 1556 1557 1559 1560 1561 1562 1563 1564 1565 1565 1566 1566 1566 1566 1566 1567 1568 1568 1569 1569 1569 1569 1569 1569 1570 1570 1570 1570 1571 1571 1570 1570 1570
1535 1538 1542 1545 1548 1550 1552 1554 1555 1556 1557 1558 1560 1561 1562 1564 1565 1566 1566 1567 1567 1568 1568 1568 1569 1569 1570 1570 1571 1571 1571 1571 1571 1571 1571 1572 1572 1572 1572 1572 1572 1572 1572
1535 1539 1542 1545 1548 1551 1553 1554 1556 1557 1558 1559 1561 1562 1563 1565 1566 1567 1568 1569 1569 1570 1570 1570 1570 1571 1571 1572 1572 1572 1573 1573 1573 1573 1573 1573 1573 1574 1574 1573 1573 1573 1572
1536 1540 1543 1546 1549 1551 1553 1555 1557 1558 1559 1560 1561 1563 1564 1565 1567 1568 1569 1570 1570 1571 1571 1572 1572 1572 1572 1573 1573 1574 1574 1574 1574 1575 1575 1575 1575 1575 1574 1574 1573 1573 1572
1537 1540 1544 1546 1549 1551 1553 1555 1557 1559 1560 1561 1562 1564 1565 1566 1567 1568 1569 1570 1571 1572 1572 1573 1573 1573 1573 1574 1574 1575 1575 1575 1576 1576 1576 1576 1575 1575 1575 1574 1573 1572 1571
1538 1541 1544 1547 1549 1551 1553 1555 1557 1559 1561 1562 1563 1564 1565 1567 1568 1569 1570 1571 1572 1572 1573 1574 1574 1574 1574 1575 1575 1575 1576 1576 1576 1576 1576 1576 1576 1575 1574 1574 1573 1572 1571
1538 1541 1544 1546 1548 1551 1553 1555 1557 1559 1560 1562 1563 1564 1565 1567 1568 1569 1570 1571 1572 1573 1573 1574 1574 1575 1575 1575 1575 1576 1576 1576 1576 1576 1576 1576 1575 1575 1574 1573 1573 1571 1570
1538 1540 1543 1546 1548 1550 1553 1555 1556 1558 1560 1561 1563 1564 1565 1566 1567 1568 1569 1570 1571 1572 1573 1574 1574 1575 1575 1575 1575 1575 1575 1576 1576 1576 1576 1575 1575 1574 1574 1573 1572 1571 1570
1537 1540 1542 1545 1547 1550 1552 1554 1556 1558 1559 1561 1562 1563 1564 1565 1566 1567 1568 1569 1570 1571 1572 1573 1573 1574 1574 1574 1574 1574 1574 1575 1575 1575 1575 1575 1574 1573 1573 1572 1571 1570 1569
1537 1539 1541 1543 1546 1549 1551 1553 1555 1557 1558 1560 1561 1562 1563 1564 1566 1567 1568 1569 1569 1570 1571 1572 1572 1573 1573 1573 1573 1573 1573 1573 1573 1573 1573 1573 1573 1572 1572 1571 1570 1569 1569
1536 1538 1540 1543 1545 1547 1550 1552 1554 1555 1557 1559 1560 1561 1562 1563 1565 1566 1566 1567 1568 1569 1569 1570 1570 1571 1571 1571 1571 1571 1571 1571 1571 1571 1571 1571 1571 1571 1570 1569 1569 1568 1567
1535 1537 1539 1542 1544 1546 1548 1550 1552 1554 1556 1557 1558 1560 1561 1562 1563 1564 1565 1566 1566 1567 1568 1568 1568 1568 1568 1568 1568 1568 1568 1568 1568 1568 1568 1568 1568 1568 1568 1567 1567 1566 1565
1534 1536 1538 1540 1543 1545 1547 1549 1551 1553 1554 1555 1557 1558 1559 1560 1561 1562 1562 1563 1564 1565 1565 1565 1565 1565 1565 1565 1565 1565 1565 1565 1565 1565 1565 1565 1565 1565 1565 1565 1564 1564 1563
1533 1535 1537 1539 1541 1543 1545 1547 1549 1551 1552 1553 1555 1556 1557 1558 1559 1559 1560 1560 1562 1562 1562 1562 1562 1561 1561 1561 1561 1562 1562 1561 1561 1561 1560 1560 1560 1561 1561 1561 1561 1561 1561
1531 1533 1535 1537 1539 1541 1543 1545 1547 1548 1549 1551 1552 1553 1554 1555 1556 1556 1556 1557 1558 1558 1558 1558 1558 1558 1557 1557 1557 1557 1557 1556 1556 1556 1556 1556 1556 1556 1556 1556 1556 1557 1557
1529 1531 1533 1535 1537 1539 1541 1543 1544 1545 1546 1548 1548 1550 1551 1551 1552 1552 1552 1553 1553 1553 1553 1554 1553 1553 1553 1552 1551 1551 1550 1550 1550 1550 1550 1550 1550 1550 1550 1551 1551 1552 1552
1527 1529 1531 1533 1534 1536 1538 1539 1541 1542 1543 1544 1545 1546 1547 1547 1548 1548 1548 1548 1548 1548 1548 1549 1548 1548 1547 1547 1546 1544 1543 1543 1543 1543 1544 1544 1544 1544 1544 1544 1545 1546 1546
1524 1526 1528 1530 1532 1534 1535 1537 1538 1539 1540 1541 1542 1542 1542 1543 1543 1543 1543 1543 1543 1543 1543 1543 1543 1542 1541 1542 1541 1539 1537 1536 1535 1536 1537 1537 1537 1538 1538 1538 1539 1539 1540
1521 1523 1525 1526 1528 1530 1532 1533 1534 1535 1536 1537 1537 1537 1538 1538 1538 1537 1537 1537 1537 1537 1536 1537 1537 1536 1536 1536 1536 1536 1533 1529 1529 1530 1530 1531 1532 1532 1532 1532 1532 1533 1533
1518 1519 1521 1523 1525 1526 1528 1529 1530 1530 1531 1531 1532 1532 1532 1532 1532 1531 1531 1531 1530 1530 1530 1530 1531 1530 1530 1529 1529 1529 1529 1527 1526 1523 1524 1526 1526 1526 1526 1526 1526 1526 1526
1514 1516 1518 1519 1521 1522 1523 1524 1525 1525 1526 1526 1526 1526 1526 1526 1526 1525 1525 1524 1524 1523 1523 1523 1523 1523 1523 1523 1523 1523 1522 1522 1521 1520 1517 1519 1520 1520 1520 1520 1520 1520 1519
1511 1513 1515 1516 1517 1518 1519 1519 1520 1520 1520 1521 1520 1520 1520 1520 1519 1519 1518 1518 1517 1517 1517 1516 1516 1516 1516 1516 1516 1516 1516 1516 1516 1515 1513 1512 1512 1514 1514 1514 1514 1513 1513